User: anonymous   Login
Location: Bouchavesnes-Bergen
(49.9859°N, 2.9203°E)
Time: 19:37:11
(UTC+00:00)
Language:

Cosmos 2333 Rocket - Orbit

View from above orbital plane
View from above orbital plane
View from above satellite
View from above satellite

Ground track
Ground track

The orbit data is extracted from the following two-line orbital elements,

1 24298U 96051B   21136.57238792 -.00000180  00000-0 -70763-4 0  9990
2 24298  70.8311 288.1849 0017982 223.3172 136.6536 14.12446792273398
Epoch (UTC): 16 May 2021 13:44:14
Eccentricity: 0.0017982
inclination: 70.8311°
perigee height: 838 km
apogee height: 864 km
right ascension of ascending node: 288.1849°
argument of perigee: 223.3172°
revolutions per day: 14.12446792
mean anomaly at epoch: 136.6536°
orbit number at epoch: 27339

The dashed part of the orbit path shows where the satellite is in the earth's shadow,  

DLR